Theta_e
346 346 346 346 348 349 350 350 350 349 348 349 348 348 349 348 347 347 347 346 347 347 347 349 349 349 349 348 347 347 347 342 336 336 335 335 334 334 335 336 339 342 344 345 346 346 346 345 346 346 346 345 344 345 345 344 345 344 344 344 344 343 343 342 340 340 340 340 340 339 340 341 341 343 343 343 343 345 345 344 344 343 343 343 342
348 348 349 349 349 350 350 349 350 350 350 350 349 349 349 349 349 349 348 347 347 347 347 348 348 349 348 347 347 347 347 345 339 337 338 337 337 336 336 335 337 341 343 344 346 347 347 346 346 346 347 346 345 346 347 345 346 346 345 344 344 343 344 342 339 338 340 341 342 341 342 343 343 345 344 344 344 345 345 344 344 342 343 343 341
349 349 350 349 350 350 349 348 350 350 350 350 350 350 349 350 350 351 349 347 347 347 347 347 348 349 348 347 348 347 348 347 343 338 338 338 338 338 338 336 337 337 338 340 342 344 345 345 345 345 346 346 346 347 346 345 346 346 345 344 344 344 343 342 339 339 342 343 344 343 344 345 345 345 345 345 346 345 345 344 344 343 343 342 342
349 348 348 348 348 348 348 349 350 351 350 350 350 350 350 351 350 351 350 348 347 347 347 347 348 348 349 348 348 348 348 348 346 342 339 339 339 340 339 339 338 337 336 335 336 338 341 342 343 343 343 343 342 342 343 343 343 342 343 344 343 344 344 342 341 342 345 345 345 345 345 346 346 345 345 346 346 345 345 344 344 343 342 341 342
349 347 347 347 347 348 350 349 350 351 351 351 351 351 351 351 351 351 350 348 348 348 348 347 346 348 349 348 348 348 348 348 348 346 342 340 338 340 339 340 340 339 339 338 337 336 336 337 338 339 338 337 336 337 338 339 338 338 341 344 343 343 344 344 344 346 346 346 345 346 346 345 345 345 346 346 346 345 345 344 343 343 342 340 341
348 348 348 349 348 349 350 350 350 351 351 352 352 351 351 350 351 350 348 349 348 347 348 346 345 347 348 348 347 348 348 348 348 347 345 342 339 339 339 340 340 340 340 340 340 339 339 338 338 337 337 336 336 336 336 337 337 338 341 344 344 345 346 345 345 345 345 346 345 346 346 346 345 346 346 346 346 345 345 344 343 343 342 340 341
349 350 350 350 350 349 350 351 351 351 350 351 352 350 350 350 350 350 349 348 348 346 346 344 343 345 347 347 347 347 347 348 347 347 347 344 342 340 340 339 339 340 340 339 340 340 341 340 340 340 340 339 339 338 339 339 339 342 344 346 346 346 346 346 345 345 345 345 345 346 346 346 346 346 346 345 345 346 345 344 343 342 341 340 339
351 351 351 351 351 351 351 352 351 350 350 350 351 349 349 349 350 350 349 348 348 346 345 343 343 344 345 346 347 347 347 348 347 347 347 346 345 343 343 342 341 342 342 341 341 341 340 340 341 341 340 341 341 340 341 341 341 343 345 346 347 346 347 346 346 346 345 345 345 346 346 346 346 346 346 346 345 345 345 344 343 342 341 339 338
353 353 352 352 351 352 353 353 351 350 350 350 350 351 349 349 350 349 348 347 346 345 343 342 343 344 345 346 347 346 347 348 347 347 348 347 346 346 346 345 345 346 346 346 345 345 343 341 341 340 340 341 341 341 341 342 342 343 344 346 346 346 346 346 345 345 345 344 345 345 346 346 346 346 345 345 346 345 345 344 343 343 341 338 336
353 353 353 352 352 352 352 352 351 351 350 350 351 351 351 351 350 350 348 347 346 344 342 342 342 343 345 345 346 346 346 347 347 347 347 348 346 345 346 346 347 347 347 347 347 348 347 344 344 342 340 340 339 340 340 341 341 341 343 346 347 347 347 346 346 346 345 345 345 345 345 345 345 345 345 345 345 345 344 344 343 343 341 339 334
353 353 353 352 353 352 352 352 350 350 349 350 352 351 352 352 351 349 348 348 347 345 344 343 343 343 345 345 345 346 346 347 347 347 347 346 346 345 345 347 347 347 347 347 347 348 348 347 346 345 343 341 339 340 341 341 340 340 340 343 345 346 347 346 345 346 345 345 345 344 344 344 344 344 345 344 344 345 344 343 343 342 341 339 331
353 353 353 352 353 353 353 352 350 349 349 350 351 352 352 352 351 349 349 348 346 346 345 343 344 343 345 346 345 346 347 346 346 346 346 345 346 346 345 346 347 346 346 346 347 347 348 348 347 346 346 345 343 343 343 343 341 339 339 338 340 341 344 345 346 345 345 344 344 343 343 343 343 344 344 344 344 344 344 343 342 341 340 337 327
354 353 353 352 352 352 353 353 351 351 350 349 350 351 351 351 350 350 350 347 345 345 344 344 344 344 344 344 345 345 346 347 347 347 347 345 345 345 345 346 346 346 346 346 346 346 348 347 346 346 345 344 344 343 343 344 342 342 339 338 337 337 338 340 342 344 345 345 344 343 342 341 341 342 343 343 344 343 343 342 341 340 338 331 321
353 353 352 352 352 352 352 353 352 352 350 348 350 351 351 351 350 350 349 348 346 343 344 344 343 344 345 344 345 345 344 346 348 347 346 345 345 345 346 346 346 345 346 347 347 346 347 346 346 346 345 344 344 344 344 346 345 345 343 341 340 339 339 338 338 340 342 342 340 340 340 338 337 340 341 342 342 342 342 341 340 337 331 324 318
352 353 354 352 352 351 351 352 353 352 351 349 350 350 351 352 351 350 349 349 347 343 343 344 343 345 345 348 349 348 346 346 346 347 347 346 345 344 345 345 345 345 345 346 347 346 345 345 345 345 346 345 345 344 344 345 346 346 346 345 345 344 343 340 336 335 335 335 334 333 332 329 330 333 336 339 340 342 341 339 337 333 324 318 317
349 352 354 353 353 353 352 353 354 354 353 349 349 350 351 350 351 350 350 349 347 344 344 345 344 345 347 351 350 350 354 351 345 346 347 346 346 344 345 343 343 345 345 346 346 345 345 345 345 345 345 345 345 344 342 343 344 345 347 347 347 347 345 340 334 330 328 328 328 327 324 322 323 325 329 331 333 336 337 334 333 330 321 318 317
347 348 352 354 354 355 354 354 355 354 353 351 350 351 351 351 351 350 350 349 349 346 345 345 345 345 346 351 350 351 360 354 345 345 345 345 346 344 344 343 342 344 344 344 344 344 345 345 344 345 345 345 344 343 342 342 343 344 345 346 346 346 345 339 332 327 326 325 324 323 322 321 321 322 323 324 323 325 328 329 330 327 321 318 317
347 348 351 354 355 357 356 355 354 353 353 353 352 353 353 353 352 350 349 350 351 348 346 346 346 344 345 348 347 348 354 351 348 350 345 342 343 344 345 344 343 343 343 344 343 343 344 344 345 344 344 345 344 344 343 344 344 344 344 344 344 346 346 343 334 327 324 324 324 324 323 322 321 321 321 322 322 320 321 322 324 322 320 318 317
348 349 352 355 355 357 357 356 354 352 353 355 353 354 355 354 353 351 350 351 351 349 348 346 344 343 344 346 344 343 346 347 349 354 354 349 344 342 344 345 344 343 343 344 343 342 344 344 344 344 343 344 345 345 345 345 345 346 345 343 345 345 347 346 341 334 330 327 326 325 325 324 323 322 322 321 321 320 319 319 319 319 318 317 316
349 350 353 355 356 357 357 357 355 353 355 356 354 356 356 355 355 353 353 352 351 350 349 346 344 343 344 345 345 343 344 343 344 350 357 359 354 348 344 343 344 343 343 345 343 343 344 344 344 342 343 343 344 345 345 345 344 345 345 345 345 345 345 346 346 344 341 337 333 329 328 327 326 326 325 324 322 322 321 319 319 319 318 317 317
350 352 353 355 356 356 356 357 358 356 356 355 355 357 356 356 355 354 355 353 351 353 351 347 348 349 348 345 345 344 344 342 341 344 349 354 356 355 348 343 344 343 343 344 343 343 344 344 344 343 343 344 344 345 344 344 345 345 346 346 346 346 346 347 346 346 346 344 342 338 333 330 328 328 327 327 326 325 324 322 321 320 319 318 317
354 355 355 356 356 355 356 357 358 357 357 355 354 356 356 355 355 355 355 353 350 353 353 351 350 352 350 345 344 345 345 344 342 344 345 345 349 351 347 344 345 344 343 343 343 344 344 344 344 343 343 343 343 344 344 343 344 344 345 345 346 346 346 346 346 346 346 345 346 344 341 336 332 331 330 329 329 328 328 327 325 324 323 321 320
355 356 356 355 356 355 356 356 357 358 358 356 354 355 355 354 356 356 355 354 352 352 354 353 353 354 352 347 344 344 345 345 344 344 345 344 348 349 344 343 345 343 343 344 342 343 344 343 343 343 343 343 342 342 343 344 343 344 345 345 345 346 346 346 346 346 346 346 346 346 345 343 340 337 335 333 332 331 331 330 330 330 328 327 326
355 357 356 355 356 355 356 356 356 357 358 357 355 356 355 355 356 355 355 355 354 353 354 354 353 353 352 350 348 344 343 344 343 343 343 342 345 345 341 344 348 346 346 346 344 342 342 342 343 343 343 342 342 342 342 343 343 343 344 345 345 346 345 345 345 346 346 347 346 346 345 345 344 342 340 339 337 335 335 334 333 333 332 331 331
355 357 356 355 355 355 356 356 355 355 356 357 356 357 356 355 355 354 354 355 355 354 354 355 354 354 352 351 352 348 345 348 348 347 345 343 342 342 342 347 349 346 345 348 348 345 343 343 343 343 343 342 342 342 342 343 343 343 344 344 344 345 345 345 345 345 345 345 345 345 345 345 344 344 344 343 342 340 340 339 337 337 336 334 334
352 354 355 356 355 354 356 356 355 354 355 356 356 357 356 355 355 354 354 355 354 355 355 355 355 355 354 354 354 353 351 353 353 352 349 346 344 343 346 348 347 346 347 347 347 348 347 346 346 347 346 345 344 342 342 342 343 343 344 344 345 345 345 345 345 344 345 345 345 344 345 345 345 346 346 346 346 345 345 345 344 343 341 339 337
349 351 353 355 355 354 355 356 357 355 354 355 355 356 356 357 356 354 354 354 355 355 354 354 356 356 356 356 356 355 354 355 354 353 350 346 345 345 346 349 350 350 351 350 346 346 349 349 348 349 350 347 345 343 343 343 343 344 345 344 345 345 346 346 345 346 345 345 346 346 346 346 347 347 348 348 348 349 349 349 349 348 348 346 344
348 350 352 353 354 355 355 355 356 356 356 356 355 355 355 356 357 355 354 355 355 356 356 354 355 356 357 357 357 357 356 355 354 354 351 347 347 347 347 349 351 355 361 363 354 346 348 348 346 349 350 348 345 343 343 343 343 343 345 345 346 347 347 348 347 347 347 347 347 348 347 348 348 348 349 351 352 352 353 353 353 353 352 352 351
348 350 351 351 352 353 354 354 355 356 358 358 356 355 355 355 356 356 356 356 356 357 356 355 355 356 357 358 357 357 355 354 353 354 353 351 350 350 350 348 350 357 365 370 362 351 347 349 348 349 349 347 347 346 345 346 346 345 346 347 348 349 351 352 352 351 350 350 349 349 350 349 350 351 353 354 356 356 356 355 355 355 354 354 353
347 349 350 351 351 352 353 354 354 355 356 357 357 357 355 355 354 355 356 357 357 356 356 356 355 356 357 358 358 356 356 355 353 352 352 352 352 351 352 351 350 354 356 361 364 356 349 350 349 347 346 345 347 347 347 348 349 350 352 353 354 355 355 355 354 354 353 353 353 354 355 354 354 355 356 357 357 357 357 357 357 356 356 356 354
346 348 350 350 351 351 352 353 354 354 354 355 357 357 357 356 354 353 353 355 356 356 356 357 356 356 356 357 357 356 356 355 354 354 353 355 354 353 354 353 352 355 353 355 361 358 351 351 351 349 349 349 350 350 348 347 349 351 353 355 356 355 355 355 354 354 353 354 355 356 356 357 357 357 357 358 358 357 358 359 358 358 358 358 358
344 347 349 350 349 348 350 352 353 353 353 354 355 356 357 357 356 354 352 352 354 353 353 356 356 356 355 355 356 357 357 356 355 355 354 354 355 354 355 355 354 354 354 354 357 356 353 354 354 352 354 354 354 354 352 351 350 350 352 353 355 355 356 356 356 356 356 356 356 357 357 357 357 357 357 357 357 359 360 361 360 360 360 360 359
343 345 346 347 345 344 346 351 353 353 353 353 353 354 356 358 357 355 354 354 353 351 351 355 357 356 356 355 355 355 355 356 355 355 354 354 354 354 355 356 355 355 355 355 356 354 354 355 355 355 356 356 355 354 354 353 351 351 354 354 356 357 358 358 358 357 357 357 357 358 358 358 357 357 357 358 360 362 362 361 359 357 356 357 358
341 342 342 342 343 342 344 349 351 352 352 353 353 354 355 357 357 357 357 358 356 353 352 353 354 355 357 355 353 353 354 354 353 353 353 353 353 354 355 355 355 355 355 356 356 356 355 356 355 355 355 356 355 353 355 356 355 354 356 358 358 358 358 358 358 358 357 358 358 359 359 359 359 360 360 362 362 362 360 357 355 355 357 358 357
338 339 340 340 340 342 343 346 348 350 352 353 353 353 353 356 357 357 358 358 357 356 354 353 352 353 356 355 353 354 356 356 354 353 353 353 354 354 355 355 355 356 356 356 356 356 356 356 356 356 355 355 356 356 357 358 357 358 359 359 358 358 358 358 358 358 359 359 359 359 360 360 362 362 363 362 360 357 356 354 355 357 357 355 352
339 338 338 338 339 342 345 346 347 348 351 352 353 353 353 354 356 357 357 357 357 356 354 353 353 354 355 354 352 354 357 358 357 355 354 354 355 355 355 355 355 356 355 356 356 356 357 356 356 355 355 356 358 358 358 358 358 359 360 358 356 356 358 358 359 359 360 359 358 358 359 360 362 361 361 358 356 354 353 355 358 357 353 348 345
342 341 340 340 340 343 347 348 348 348 349 351 352 353 353 353 354 356 357 357 357 355 353 352 353 355 355 354 352 352 355 357 357 356 356 355 355 356 357 356 355 355 356 356 356 355 356 356 356 356 356 357 358 357 356 358 360 360 359 357 356 358 360 360 361 361 358 357 357 358 360 360 360 359 357 355 353 353 355 358 357 351 345 343 343
343 344 343 343 342 344 345 348 349 349 349 350 351 352 352 353 355 355 356 357 357 356 354 352 353 355 356 354 352 352 353 353 354 356 357 357 356 356 357 357 356 356 356 356 357 356 356 357 357 358 358 358 358 357 356 359 361 360 358 357 358 359 360 360 359 356 355 356 358 359 359 360 358 357 355 353 353 355 358 357 350 343 342 342 342
342 343 344 345 345 344 344 345 346 349 350 351 351 352 352 353 355 356 357 358 357 357 355 353 353 355 356 353 352 351 352 352 351 353 354 355 356 356 357 357 357 356 355 355 356 356 356 358 358 359 358 358 359 358 358 360 361 360 358 358 360 358 357 356 355 354 357 358 359 359 359 358 357 354 353 353 355 356 354 348 342 341 342 341 340
339 340 341 343 345 345 345 345 345 346 349 351 352 352 353 354 355 356 356 357 357 356 356 355 353 353 354 353 351 350 350 351 350 351 353 355 356 356 356 357 356 356 356 356 356 357 357 358 358 359 359 359 359 359 360 361 359 358 358 359 359 357 354 353 354 356 359 359 359 359 358 357 355 352 352 354 353 348 343 340 340 341 340 339 338
338 339 339 340 343 345 346 346 346 347 349 351 352 352 353 354 355 355 356 356 356 356 356 356 355 354 353 353 353 351 350 350 350 351 353 356 357 358 357 357 357 356 356 356 356 357 357 358 358 359 359 359 359 360 360 360 357 356 358 359 357 355 353 353 356 359 360 360 359 359 358 357 354 351 352 354 349 340 338 340 341 340 338 337 337
339 340 340 341 343 344 345 347 348 348 349 351 352 352 353 353 354 355 355 355 356 356 355 356 355 355 354 354 355 355 354 354 352 352 354 354 356 357 356 356 356 357 357 356 356 357 357 358 358 358 359 359 359 360 359 356 354 353 355 356 354 352 353 356 358 360 360 360 360 359 357 356 352 350 352 350 342 337 340 342 339 337 336 336 336
341 341 341 342 343 344 346 347 348 350 351 351 352 352 353 353 353 355 355 355 356 355 356 356 355 354 354 354 354 355 356 355 355 355 354 352 354 355 355 354 355 355 356 357 356 357 357 358 359 358 360 360 359 358 356 353 351 351 351 351 351 352 355 357 359 360 361 360 359 359 357 353 351 349 349 343 337 338 341 340 336 334 335 335 335
343 344 344 344 345 346 347 349 350 350 352 352 352 353 353 354 354 354 355 356 355 356 356 355 355 354 353 353 353 353 354 354 354 354 353 352 354 354 354 355 354 354 356 355 356 356 356 357 358 358 359 359 357 355 353 352 350 349 349 350 351 352 354 358 359 361 362 359 359 359 357 353 350 348 345 339 336 340 342 338 333 333 334 334 333
345 346 347 346 347 348 349 351 351 352 352 352 353 353 354 354 355 355 355 355 355 355 355 354 354 354 354 353 354 353 352 352 353 353 353 353 353 354 355 356 356 356 356 356 355 355 355 356 357 358 356 356 355 353 351 351 351 351 351 352 352 353 354 357 360 361 361 359 358 356 354 351 349 346 341 336 336 341 341 335 332 333 334 333 331
347 348 349 348 349 349 350 351 352 353 354 354 353 354 354 354 355 355 356 355 354 355 354 354 355 354 354 354 355 354 353 353 354 354 353 353 353 353 354 354 354 354 354 355 356 356 356 356 357 357 355 354 355 352 350 352 354 353 353 354 354 354 355 358 360 361 360 358 356 354 351 350 347 343 337 334 338 341 339 332 331 333 332 330 328
349 349 350 351 351 351 351 352 353 354 354 354 354 354 354 355 355 356 357 356 355 355 354 354 355 354 355 355 355 355 354 354 354 354 355 355 354 354 354 353 352 351 350 351 353 353 354 355 355 355 354 354 355 354 355 357 356 357 356 356 356 356 356 359 360 360 359 358 356 354 350 345 343 339 334 334 339 341 336 331 330 331 330 328 326
350 351 351 352 352 352 353 353 353 355 354 354 355 355 355 355 356 356 358 357 355 356 355 355 355 355 355 355 355 356 355 354 354 353 354 355 356 356 356 354 353 352 351 350 350 351 352 351 352 354 353 355 357 359 360 361 360 360 359 358 358 358 358 359 359 358 358 357 356 353 347 342 340 337 332 333 339 340 334 329 330 330 328 326 323
352 353 353 354 354 353 354 354 354 355 355 355 355 356 355 356 356 357 358 357 356 356 355 356 356 355 356 356 356 356 356 355 354 353 354 355 356 356 355 355 354 353 351 350 349 351 352 352 353 355 355 358 360 361 360 359 361 362 360 358 359 358 357 356 356 357 358 358 356 350 343 340 339 337 332 331 338 339 332 329 330 329 328 326 321
353 354 354 355 355 355 355 355 355 355 356 356 356 356 356 356 356 356 358 358 357 356 357 356 356 356 356 355 355 356 355 355 354 354 354 355 356 356 355 354 354 353 352 351 350 351 352 354 356 356 358 361 360 359 359 358 359 360 360 360 360 358 357 356 355 357 357 355 353 346 340 339 338 336 331 329 334 335 331 330 331 328 327 325 320
355 355 355 355 356 356 357 357 356 356 356 356 356 357 357 357 357 357 357 358 357 357 357 357 357 357 357 357 356 355 355 355 355 354 355 355 355 356 355 354 355 354 353 353 352 353 354 355 357 358 360 361 359 359 360 358 358 359 359 360 360 358 358 356 355 357 355 351 348 343 338 338 337 334 329 327 333 333 330 330 331 328 326 323 319
Wind_Speed
13 12 11 11 11 10 9 9 9 9 10 9 8 8 8 8 8 7 6 6 8 8 7 7 8 9 10 13 15 12 9 7 8 8 8 7 7 7 7 7 7 7 7 7 6 6 6 6 6 6 5 5 6 5 5 5 4 4 4 3 2 2 2 2 2 1 2 2 2 3 3 3 4 4 6 6 7 7 7 8 8 8 9 9 9
13 12 11 11 11 10 10 9 9 9 9 8 8 8 8 7 7 6 5 6 6 6 6 8 10 10 11 13 14 12 9 8 7 7 8 7 7 7 7 6 6 7 6 6 6 6 6 6 6 6 6 6 6 6 5 5 4 4 3 3 2 2 3 3 3 3 3 2 3 4 4 4 5 6 7 7 7 7 7 8 8 8 8 8 8
12 12 12 11 11 11 10 10 10 10 9 8 8 8 7 7 6 5 5 6 5 5 6 8 11 12 12 12 12 11 8 8 7 7 7 7 7 7 7 7 6 6 6 6 6 6 6 6 6 6 6 6 6 6 6 5 4 4 4 4 3 3 4 4 4 4 3 4 4 5 5 6 6 7 8 7 7 7 8 8 8 8 8 7 7
11 12 12 11 11 11 10 10 10 9 8 8 8 8 8 7 5 4 4 5 4 4 4 7 12 14 13 12 11 10 8 8 7 6 7 7 7 7 7 7 7 6 6 5 5 5 6 6 6 6 6 6 6 6 6 5 4 4 4 4 4 4 6 5 5 5 5 6 6 7 7 7 8 8 8 8 8 8 8 8 7 8 8 7 6
11 11 11 10 9 10 10 10 10 9 7 7 7 7 7 7 6 5 5 5 5 6 3 4 12 14 13 12 10 9 8 8 7 6 6 6 7 7 7 7 7 7 6 6 5 5 6 6 6 6 6 6 6 6 5 5 5 5 5 5 5 6 6 6 6 7 7 7 8 8 9 9 9 9 8 8 8 8 8 8 8 8 8 6 5
11 11 11 9 9 9 9 9 9 8 8 7 6 6 7 8 7 6 7 6 6 7 3 3 11 14 12 12 10 9 8 8 7 6 5 5 6 7 7 7 6 6 6 6 7 7 7 7 7 7 7 7 7 6 6 6 6 6 6 7 7 7 8 8 8 8 9 9 9 9 9 9 9 8 8 8 8 8 7 8 8 8 7 6 4
13 12 11 10 8 9 10 9 8 7 7 6 5 5 6 7 7 7 7 7 6 5 3 5 10 13 12 11 10 8 8 8 7 6 6 5 5 6 6 7 6 6 6 6 6 7 7 8 8 8 8 8 8 8 8 8 8 8 8 8 9 9 10 10 10 10 10 10 10 10 10 10 9 9 9 9 8 8 8 8 7 7 6 5 4
14 12 11 10 9 9 10 9 7 6 6 6 6 5 6 7 7 7 7 7 6 4 4 7 9 12 11 11 11 9 9 10 8 7 7 6 5 5 6 6 6 6 5 5 5 6 6 8 8 9 9 9 9 9 9 10 10 10 10 11 11 11 11 11 11 11 11 11 11 10 10 10 9 9 9 9 8 8 8 8 7 7 6 5 4
13 12 11 10 9 9 9 9 7 7 8 8 8 7 7 8 7 7 7 7 7 6 7 8 9 11 9 9 10 9 9 10 9 8 8 8 6 5 5 6 6 6 5 4 5 5 6 7 8 9 9 10 10 10 11 11 11 12 12 12 12 12 12 12 12 12 11 11 11 11 10 10 10 10 9 9 8 8 8 8 8 7 6 5 5
14 13 11 10 10 10 9 9 8 8 9 10 10 9 8 8 7 7 7 8 7 7 8 8 8 10 9 8 9 7 6 8 9 9 9 9 7 5 5 6 6 6 5 5 5 5 6 7 8 8 9 10 10 10 11 11 11 12 12 12 12 12 12 12 12 12 11 11 11 11 11 11 11 10 9 9 9 9 9 9 9 8 7 6 6
15 14 12 11 11 11 10 9 8 8 9 11 10 9 8 8 7 7 8 7 6 7 8 7 6 8 8 8 6 6 7 8 8 9 10 9 8 6 6 7 6 6 6 5 5 6 6 6 7 8 8 9 9 9 9 10 11 11 12 12 12 12 12 12 12 12 11 11 11 11 11 11 10 10 9 9 9 9 9 10 9 8 8 7 6
15 14 13 12 11 10 9 8 8 8 10 10 10 9 8 8 8 8 7 5 4 7 8 9 10 9 9 7 6 5 6 8 7 7 8 10 9 9 9 8 7 8 7 6 6 6 6 6 6 7 7 7 7 7 8 9 9 10 11 12 12 13 13 12 12 12 12 12 12 11 11 11 10 10 10 10 10 10 10 10 10 9 9 8 7
16 14 13 12 11 10 9 9 8 8 8 9 9 10 9 9 8 7 6 5 7 10 10 12 13 11 8 7 6 5 5 7 7 7 9 11 11 11 11 10 10 9 9 8 8 7 7 6 6 6 7 7 7 7 7 7 8 8 9 10 11 11 12 12 12 12 12 12 12 11 11 11 11 10 11 10 10 11 10 10 10 9 9 8 8
17 15 13 12 11 11 10 10 9 8 8 9 9 9 9 9 8 6 5 6 8 12 13 11 12 10 8 5 3 4 6 7 8 9 10 11 13 14 14 13 13 11 11 11 10 9 9 8 8 7 7 7 7 7 7 7 7 7 7 8 9 10 11 12 13 13 12 12 12 11 12 12 11 11 11 11 11 11 11 11 11 11 10 9 8
18 16 13 12 11 11 11 10 9 9 9 10 10 9 9 9 8 6 5 5 6 9 10 7 8 10 7 3 1 2 4 6 9 11 11 12 14 15 15 15 15 12 12 13 13 11 10 10 10 9 8 8 8 8 8 8 8 7 8 8 9 10 11 12 13 13 12 12 12 12 12 12 12 12 12 11 12 11 12 12 11 11 10 10 10
18 16 14 13 12 11 12 10 9 9 9 10 10 10 10 10 9 7 6 6 6 7 7 5 7 9 5 2 1 2 1 5 8 11 12 12 14 15 15 15 15 15 14 14 14 13 11 11 11 11 11 9 9 9 9 9 8 9 9 10 11 11 11 12 12 12 12 12 12 12 12 12 12 12 12 12 12 12 12 12 12 11 11 11 11
17 16 14 13 12 10 10 10 9 9 9 9 10 10 10 9 8 7 7 6 6 7 7 5 7 9 5 2 2 1 2 3 3 7 10 10 11 14 16 15 15 16 16 14 14 14 13 12 12 12 12 11 10 10 10 9 9 9 10 10 11 11 11 11 12 12 12 12 12 12 12 12 12 12 12 12 13 13 13 13 13 13 13 13 13
17 16 15 13 12 10 9 9 9 9 9 9 9 10 10 9 8 7 7 6 6 6 6 7 7 8 7 4 2 2 4 3 1 2 6 8 8 11 15 16 16 17 17 16 14 14 14 14 13 13 13 12 12 11 10 9 9 9 9 9 9 10 10 11 11 12 12 12 12 12 12 13 13 13 13 13 13 13 14 14 14 14 14 14 15
18 17 15 13 12 10 9 9 9 9 9 8 9 10 10 9 8 7 6 7 8 6 6 8 7 6 7 6 3 3 5 5 3 1 2 5 8 10 13 16 18 19 19 18 16 15 15 15 15 14 14 14 13 13 12 10 9 8 8 8 8 9 10 10 11 11 12 12 13 13 13 13 13 14 14 14 14 14 14 15 15 15 16 16 16
18 17 16 14 12 11 10 9 9 9 9 9 9 10 9 8 8 7 6 7 8 7 6 8 7 4 5 5 4 4 6 5 4 3 2 1 5 7 9 12 17 20 19 19 18 17 16 17 16 15 15 15 15 14 14 12 11 10 9 8 8 9 10 11 11 11 12 12 12 13 13 14 14 14 15 15 15 15 15 16 16 17 17 17 17
18 17 16 16 14 13 12 11 10 10 10 9 9 10 9 9 9 9 8 8 9 8 7 8 6 2 3 4 3 4 5 4 4 5 3 1 2 4 5 7 13 19 21 21 21 20 18 17 17 17 16 16 16 16 15 15 14 13 12 10 10 11 12 12 12 13 13 13 13 14 14 14 15 15 16 16 17 17 17 17 17 18 18 18 18
19 17 17 17 16 15 14 14 13 11 11 10 10 11 10 9 9 9 8 8 9 9 7 7 5 2 3 5 6 5 4 3 5 7 4 3 3 4 5 4 6 13 18 20 20 20 19 18 18 18 18 16 16 16 16 16 15 14 13 12 12 12 13 14 14 15 15 16 16 16 16 16 17 17 17 18 18 19 19 19 19 19 19 20 20
22 20 18 18 18 16 15 15 15 13 12 11 12 12 11 10 10 9 9 8 10 10 8 7 6 4 4 6 7 7 6 5 7 7 7 5 3 4 5 3 2 5 7 11 16 17 17 16 16 17 17 16 15 15 16 15 15 15 14 14 14 14 15 16 16 16 17 18 18 18 18 18 19 19 19 20 20 21 21 21 22 22 21 21 21
23 23 21 19 19 18 16 16 16 16 15 13 13 11 11 13 12 10 11 10 10 10 9 9 8 7 6 6 5 7 9 9 8 7 8 8 5 3 4 3 2 2 4 3 7 12 13 13 14 14 15 15 15 15 15 15 15 15 15 15 15 16 17 17 18 19 19 20 20 21 21 21 21 21 21 22 22 23 23 24 24 25 25 25 24
26 26 24 22 21 20 19 17 16 18 18 16 14 12 11 15 15 12 11 11 10 10 11 10 9 8 8 7 5 6 8 8 10 11 11 10 6 3 2 2 2 3 4 3 3 7 10 12 13 14 16 17 17 17 17 16 15 14 14 16 16 17 18 18 19 20 20 21 21 22 22 22 22 23 23 24 24 25 26 27 27 28 28 29 29
27 27 26 24 23 22 20 19 16 17 19 18 15 13 12 14 16 14 11 10 10 10 11 12 11 9 9 8 7 7 8 7 8 11 13 13 10 6 3 2 3 3 3 3 4 4 6 8 8 9 12 16 19 19 18 17 16 14 14 16 17 17 19 19 20 21 21 21 22 22 22 23 23 24 24 25 26 27 27 28 29 30 31 31 32
27 27 27 26 25 23 22 21 18 17 18 18 16 16 14 12 14 16 14 11 10 10 10 12 13 12 10 9 8 9 10 7 5 5 6 10 11 8 4 2 2 4 4 3 4 4 4 5 5 6 8 9 14 17 18 17 16 15 15 16 18 19 20 21 22 22 23 23 23 23 23 24 24 24 25 26 27 28 29 29 30 30 31 32 32
28 27 27 27 27 25 23 22 21 18 18 17 17 18 18 14 13 16 17 14 13 12 10 11 13 14 12 10 9 10 10 9 6 4 1 4 7 7 6 4 2 1 3 4 4 3 3 5 5 5 8 8 8 11 15 16 16 16 17 19 21 22 23 24 25 25 25 25 25 25 25 25 26 26 26 27 27 28 28 29 29 30 31 32 32
29 28 27 27 27 26 24 23 22 21 20 19 19 19 20 19 16 16 17 15 14 14 12 11 12 14 13 11 10 10 9 8 8 6 3 4 6 6 5 4 3 2 0 2 3 3 3 5 5 4 6 8 8 7 10 13 15 16 19 21 23 24 25 25 26 26 26 26 27 27 27 26 26 26 26 26 26 27 28 29 30 31 32 33 34
29 29 27 26 25 25 24 23 23 22 22 21 21 21 21 21 20 19 18 16 15 15 14 13 12 13 14 13 11 11 11 9 7 6 6 5 6 5 4 4 3 4 4 3 3 5 5 6 6 6 8 8 8 9 10 11 13 15 17 19 21 22 23 23 23 24 24 24 24 24 25 25 24 24 25 26 26 27 29 30 31 31 31 32 32
30 29 28 26 25 24 24 24 24 24 23 23 23 23 23 23 23 22 21 20 19 18 17 15 14 14 15 15 14 12 11 10 9 7 7 6 6 7 7 6 5 6 7 6 3 4 7 8 9 10 11 11 12 13 13 13 14 14 16 18 20 20 22 23 23 22 22 22 21 21 22 22 23 24 24 25 26 28 28 28 27 27 27 27 27
31 30 29 28 27 26 25 26 26 25 25 25 25 25 25 25 24 24 23 22 22 22 20 18 16 15 16 16 16 14 11 11 11 10 9 8 8 8 8 9 7 8 9 8 6 8 11 12 13 13 13 14 16 15 15 17 17 17 18 18 19 20 20 21 20 20 20 20 21 22 23 23 24 25 25 26 27 26 24 24 25 25 24 23 23
34 33 32 31 29 28 27 28 28 28 27 27 27 26 26 26 25 25 23 22 22 22 21 21 19 18 17 17 17 16 14 13 13 12 12 12 10 9 10 11 11 10 10 10 10 12 15 15 14 15 15 16 17 17 17 19 19 18 19 18 18 19 19 20 21 21 21 22 23 24 25 25 25 25 25 25 23 22 23 24 23 22 21 21 22
37 36 35 34 32 30 29 30 30 30 30 29 28 28 27 27 27 26 25 24 23 21 21 22 21 20 19 18 17 16 15 15 15 15 15 15 14 12 11 12 13 13 13 14 13 13 16 18 17 17 17 16 17 18 18 19 20 20 20 19 19 19 19 20 21 22 22 23 24 24 23 23 22 22 22 21 21 22 22 20 19 20 22 23 23
39 38 37 36 34 32 31 32 32 32 32 32 31 30 29 29 29 28 27 27 26 24 23 22 22 21 21 21 19 17 16 16 17 16 15 15 15 15 14 14 14 13 14 15 16 15 17 20 19 19 19 18 19 20 19 20 21 21 20 20 20 20 20 20 21 22 21 20 20 20 19 19 19 20 20 20 21 20 18 17 20 23 23 22 22
40 39 39 37 36 34 34 34 34 34 34 34 33 32 31 30 30 30 29 29 29 27 26 24 22 21 21 22 21 20 18 18 18 17 17 16 15 16 16 15 15 14 13 13 16 17 18 19 20 20 19 19 21 21 21 22 22 20 20 21 22 22 20 19 19 18 17 18 18 19 18 18 18 19 20 19 18 17 17 20 23 22 21 21 22
39 39 39 38 37 36 36 36 36 36 36 36 35 35 34 33 32 32 31 30 30 29 29 27 24 23 22 22 21 20 20 20 19 18 18 18 17 17 17 16 16 16 14 14 15 16 17 19 21 21 20 21 23 23 22 22 22 20 20 21 21 20 18 16 15 15 18 20 19 18 18 18 19 19 18 17 16 18 21 22 21 20 20 21 21
39 39 39 39 39 39 38 38 37 37 37 37 37 36 35 34 34 33 32 32 31 31 30 29 27 25 24 23 22 20 20 22 22 21 20 19 18 18 19 18 17 16 17 17 16 16 17 19 21 22 22 22 23 24 23 20 19 20 22 23 19 16 15 15 15 19 21 19 18 18 19 20 20 18 16 16 18 20 21 20 19 20 21 21 21
40 39 39 39 40 40 40 39 39 39 38 38 38 37 37 35 34 34 33 33 33 32 31 30 30 29 27 26 24 23 21 21 23 23 23 22 21 20 20 20 19 18 19 18 18 18 18 19 20 22 23 23 23 24 23 20 18 19 21 21 18 16 18 20 20 21 19 17 19 21 21 20 19 16 16 18 19 19 18 18 19 20 20 21 22
41 41 40 40 40 40 41 41 40 39 39 39 39 38 37 36 35 34 34 33 33 33 32 31 31 31 30 29 27 26 24 22 22 22 22 22 21 22 21 20 20 20 20 20 20 20 20 20 21 22 22 24 24 24 23 21 19 19 17 14 15 18 22 23 21 19 17 18 22 23 22 20 17 15 17 18 17 18 18 19 19 20 21 22 22
42 42 41 41 40 40 40 41 41 40 39 39 39 39 38 37 36 35 35 34 34 34 33 32 31 31 31 30 29 27 26 24 23 22 22 22 22 23 22 22 22 21 22 22 21 21 20 20 21 22 21 23 25 24 22 21 19 18 15 13 16 19 21 22 21 18 16 19 23 24 22 19 17 16 17 16 17 20 19 18 20 21 22 22 22
41 41 41 40 40 40 40 40 40 39 39 39 40 40 40 39 37 36 35 35 35 34 33 33 32 32 31 31 30 29 28 27 26 25 24 23 23 24 24 23 23 23 23 24 23 22 21 21 22 22 19 22 25 23 22 22 21 19 17 17 18 18 18 19 20 19 16 18 23 25 21 17 15 15 14 15 19 20 16 17 21 23 22 22 22
41 40 40 40 40 40 40 40 40 39 39 39 40 41 42 41 39 37 36 36 35 35 34 34 33 33 33 32 32 32 31 29 28 27 26 24 24 24 24 24 24 25 25 25 25 24 22 22 22 21 19 22 26 25 23 25 23 20 19 16 15 16 15 14 15 17 17 18 22 24 19 15 13 13 13 17 21 17 13 18 22 21 20 21 23
40 40 40 40 41 40 39 39 40 40 40 40 40 41 42 42 41 38 37 36 36 35 35 35 35 34 33 33 33 33 32 32 31 30 28 27 25 24 25 25 25 26 27 28 27 26 24 23 23 22 21 23 26 27 26 25 22 19 18 16 15 16 15 14 15 17 18 20 20 19 16 13 12 13 16 20 18 12 12 19 21 20 21 23 25
39 39 40 41 41 40 40 39 39 40 40 41 41 42 42 43 42 40 38 37 36 36 36 36 36 36 35 34 33 33 33 32 32 31 30 28 27 27 27 28 28 29 30 31 31 30 28 26 25 25 26 25 26 28 27 24 22 19 17 17 17 16 16 17 18 19 20 19 16 13 11 11 12 15 18 19 14 9 13 20 20 19 21 24 27
39 39 40 40 41 41 41 40 40 40 40 41 42 43 43 43 42 41 40 38 36 36 36 36 36 36 36 35 34 34 34 33 32 32 31 30 29 29 29 30 29 29 29 31 32 32 31 30 29 29 29 27 28 28 25 23 23 21 18 18 18 17 18 19 19 19 18 15 11 9 8 8 12 16 18 16 9 6 14 20 19 19 22 25 29
39 40 40 39 40 41 42 41 40 39 40 41 42 43 44 43 42 41 41 39 37 36 36 36 36 37 37 36 36 36 35 35 34 33 32 31 31 31 31 30 30 29 29 29 30 31 31 31 31 31 29 28 27 25 22 21 22 21 20 19 18 18 18 18 20 20 15 10 9 9 6 6 12 17 18 14 6 5 14 19 18 20 23 26 31
37 38 38 39 39 40 41 40 39 39 40 41 42 43 44 43 42 41 41 40 38 36 36 36 36 37 37 37 37 37 37 37 36 35 34 33 32 32 32 31 31 30 30 29 28 29 30 30 30 29 27 25 23 21 20 21 22 22 21 20 20 19 17 16 19 18 12 8 9 9 5 5 10 15 16 11 4 4 15 19 18 20 23 27 32
36 36 37 38 38 39 40 40 40 40 40 41 42 43 44 44 42 41 40 40 39 38 37 37 37 38 38 38 38 38 38 38 38 37 35 33 33 32 32 31 31 31 31 31 29 28 28 28 27 25 24 22 20 20 21 22 23 23 22 21 22 20 15 13 14 14 11 9 8 7 6 6 8 11 14 10 3 5 14 18 18 21 25 29 32
36 36 36 36 37 38 39 40 41 41 40 41 42 43 44 44 43 42 41 40 39 38 38 38 38 38 39 39 39 39 39 40 39 38 36 34 34 34 33 32 31 32 33 33 31 28 26 25 24 23 22 21 19 19 19 20 21 23 23 23 22 19 16 14 13 13 12 8 7 6 6 5 7 11 13 9 3 5 14 17 17 21 26 30 32
37 36 35 35 36 37 38 39 40 41 40 40 41 42 43 43 43 43 42 39 38 38 38 37 37 38 39 40 40 40 40 41 40 38 36 35 34 35 35 33 31 32 34 33 30 28 26 23 22 21 20 19 18 18 17 17 18 19 19 20 20 18 19 19 16 12 7 4 4 6 5 4 7 11 13 9 2 3 12 16 17 22 28 31 32
Wind_Direction
171 171 171 168 164 161 161 163 159 152 148 148 150 146 140 135 132 131 136 156 168 172 175 171 161 169 187 191 192 194 191 179 175 174 172 172 162 153 158 162 168 173 176 181 184 187 189 193 194 196 203 202 199 202 206 204 200 196 192 202 200 197 234 267 283 289 291 296 314 328 332 322 317 320 322 326 329 335 343 343 348 353 354 356 358
177 178 180 178 176 175 174 176 172 162 154 152 155 156 150 138 133 130 135 155 166 170 179 173 161 170 189 188 189 196 196 185 178 179 178 176 168 159 161 164 167 172 177 182 185 193 197 198 200 202 207 209 207 209 214 211 209 208 209 218 222 228 246 264 278 286 292 298 308 312 313 313 312 313 316 319 323 330 338 343 347 350 351 351 352
182 181 184 187 186 185 182 181 176 166 156 151 153 156 154 147 141 135 146 156 153 153 172 182 169 170 186 188 189 196 196 189 183 185 186 184 182 175 172 172 172 174 177 182 185 191 198 201 203 205 210 214 214 214 218 218 219 223 227 232 234 246 259 268 279 291 297 298 300 301 303 305 305 306 308 313 320 327 334 340 341 343 343 344 349
188 181 179 183 184 183 181 178 174 162 151 147 148 153 152 150 151 150 166 166 163 157 163 192 179 172 185 190 189 194 194 191 186 188 191 189 191 189 185 183 182 183 183 186 189 194 201 205 207 212 217 222 226 226 227 230 234 237 238 240 242 250 263 274 282 287 290 292 295 297 299 299 299 301 305 310 317 322 328 333 332 331 331 337 349
193 185 178 181 179 176 176 174 167 157 150 150 148 153 156 154 157 157 171 178 178 167 135 180 181 175 186 190 186 191 192 194 192 185 187 192 195 196 194 192 191 193 195 198 203 208 214 217 218 222 228 234 239 240 241 247 251 253 248 248 251 253 262 273 279 282 286 289 291 293 295 296 297 300 304 307 313 317 321 323 321 320 324 333 344
194 189 183 182 178 173 173 167 161 158 157 158 151 151 156 157 157 155 168 174 168 166 123 137 177 178 188 193 187 187 192 197 199 189 184 187 194 198 198 199 200 202 205 209 215 220 224 229 232 236 241 246 251 255 258 263 264 261 254 254 259 261 266 271 273 277 281 283 287 290 292 295 297 298 301 302 307 311 312 314 314 314 318 327 328
193 188 181 178 172 169 170 165 161 161 162 164 158 150 156 162 161 158 167 171 165 168 126 118 166 178 188 195 187 185 194 200 203 198 191 187 191 197 201 205 208 210 212 218 225 229 232 235 239 243 247 253 258 260 262 266 266 263 261 263 266 268 270 271 273 275 277 281 285 288 290 292 293 293 294 296 301 304 303 307 307 307 312 316 312
188 183 177 172 167 165 168 166 161 159 159 161 159 156 163 166 164 159 161 169 171 171 139 121 148 172 186 195 191 192 200 205 211 208 202 200 192 191 200 205 208 212 215 225 236 241 243 242 245 247 251 256 260 262 262 264 265 264 264 265 268 270 272 274 275 274 276 280 283 286 288 289 290 289 290 293 295 295 296 300 299 299 302 299 293
183 181 178 174 169 167 168 168 167 162 161 160 154 150 153 156 158 157 155 164 163 150 145 135 138 154 165 179 187 193 197 203 214 216 215 213 204 198 204 202 205 211 213 226 241 247 248 249 250 251 253 256 259 261 262 263 264 264 263 264 268 271 273 275 276 276 276 278 280 284 286 287 288 288 289 292 292 291 292 294 293 294 292 287 281
180 181 183 178 173 172 170 171 174 169 165 161 153 147 145 146 150 151 153 159 160 153 154 156 148 145 142 148 165 176 178 193 212 219 221 220 212 213 221 213 210 213 214 228 240 245 248 250 254 255 255 255 257 260 263 265 265 265 265 265 268 271 273 276 278 281 282 282 283 283 283 284 285 287 288 288 288 288 289 290 289 288 285 282 275
182 185 185 181 179 178 174 171 172 172 171 166 157 153 149 147 146 147 156 161 173 177 168 175 174 156 149 145 149 156 162 178 204 216 220 221 215 218 228 226 227 228 227 231 237 246 250 251 256 259 261 258 257 261 264 268 269 270 270 268 268 268 270 273 275 278 280 281 282 281 282 282 283 285 285 286 286 284 283 284 283 280 278 276 269
187 190 189 187 186 184 179 170 168 173 177 173 167 167 160 154 152 155 164 159 173 186 183 191 185 165 158 153 145 151 164 178 194 207 217 223 218 220 228 229 233 237 236 234 235 245 249 254 264 264 261 255 252 259 266 269 271 273 273 271 270 270 270 270 270 272 274 276 277 277 279 280 280 277 276 278 280 278 276 276 276 275 273 270 263
191 191 192 194 191 186 180 171 171 175 177 176 176 179 174 164 162 166 164 136 139 153 156 165 161 154 160 163 164 173 178 187 200 215 226 230 225 225 230 231 234 236 236 236 236 242 244 248 264 267 257 249 250 258 265 268 271 276 276 274 274 275 275 274 272 270 270 272 275 276 278 280 280 276 272 271 271 273 273 273 273 271 269 267 260
191 190 193 196 191 186 181 172 170 171 173 176 178 183 182 172 167 168 156 133 140 148 148 151 150 155 163 157 173 205 203 205 215 224 229 230 229 231 231 233 237 236 235 237 238 241 243 244 252 259 252 248 252 255 259 265 273 280 282 280 280 280 281 280 278 273 270 272 274 275 276 279 278 275 272 269 268 269 269 270 269 269 267 262 253
192 190 192 194 191 184 180 172 167 168 174 176 178 180 179 174 167 167 156 140 152 161 165 169 162 162 154 139 200 211 227 240 232 228 233 232 232 234 233 237 243 238 234 237 239 240 240 240 245 251 253 256 259 259 262 266 269 275 279 282 283 286 287 285 283 280 278 279 279 279 279 282 280 276 272 267 266 265 265 267 267 266 264 258 252
194 192 190 190 189 182 178 172 168 172 176 176 176 175 174 174 168 168 164 154 159 170 178 182 175 172 148 102 139 107 248 254 233 230 238 238 235 234 233 239 242 236 233 236 240 243 243 241 244 249 255 265 269 267 270 271 269 268 271 277 281 288 291 290 288 286 286 286 286 286 286 287 285 282 278 273 271 268 266 269 269 268 263 260 258
195 193 189 185 185 183 180 176 175 177 178 177 176 173 173 174 171 172 173 176 180 180 187 193 188 188 181 146 108 84 235 232 225 231 234 235 240 238 234 238 238 233 232 234 240 245 246 246 249 254 258 266 272 270 271 273 274 270 269 274 279 287 293 293 293 291 291 292 292 292 291 291 290 288 285 282 282 278 274 274 273 272 267 264 264
196 194 190 187 187 187 187 187 185 180 178 178 176 178 176 172 174 179 185 195 200 194 198 201 194 197 205 199 186 222 207 173 130 236 241 245 248 238 236 240 241 236 231 232 238 243 248 251 253 259 262 264 268 269 270 273 277 279 277 276 277 286 293 296 298 295 295 295 295 296 295 296 294 292 291 288 287 284 281 279 277 275 271 269 267
197 195 192 191 192 192 194 196 193 185 180 178 178 182 180 175 177 183 190 199 204 205 202 204 205 208 212 217 252 237 190 178 173 164 249 257 252 243 248 249 242 239 235 232 235 240 248 251 251 258 263 264 266 268 271 272 277 282 282 279 277 284 290 296 300 299 299 297 295 296 296 297 296 295 294 292 290 286 283 281 279 277 274 272 271
200 199 196 194 196 199 200 199 196 191 187 184 183 184 187 191 190 186 196 203 202 199 196 201 207 214 213 224 268 242 208 214 233 202 154 225 262 250 263 262 241 236 236 234 238 244 250 250 249 256 261 263 264 265 269 271 274 277 280 282 282 285 289 292 296 299 300 299 298 298 296 297 296 295 295 294 292 290 286 284 281 279 278 275 274
201 200 198 198 202 205 205 201 196 195 195 192 188 189 193 198 195 192 202 209 201 195 196 201 206 237 228 220 240 233 224 245 252 229 197 182 280 263 278 274 241 235 238 239 243 248 251 253 254 258 260 260 260 261 265 269 272 276 281 286 287 288 290 291 294 297 300 302 302 301 299 298 297 296 296 294 294 293 291 289 285 283 281 279 277
201 200 201 202 207 210 210 205 199 199 204 201 193 193 196 200 201 201 207 211 203 200 200 200 207 231 219 214 225 226 224 246 244 247 241 214 243 264 276 282 243 240 244 244 246 249 251 253 255 256 256 257 258 260 264 267 272 277 283 288 288 290 292 293 296 298 300 303 304 304 303 301 300 298 296 295 294 293 293 292 291 288 286 283 281
202 203 206 206 209 213 215 209 204 204 208 207 200 197 202 209 211 209 210 209 204 203 200 196 204 218 217 218 226 220 216 232 240 244 247 234 235 267 281 302 274 258 259 250 245 245 247 248 249 251 252 255 260 263 267 270 274 280 285 289 290 291 294 295 297 299 301 303 304 304 304 303 302 301 299 297 295 293 292 292 291 291 289 287 285
202 204 208 208 210 214 217 214 209 206 205 206 206 209 216 217 215 213 209 203 202 207 204 197 205 217 222 228 237 228 222 231 240 243 247 246 248 278 307 332 319 328 346 300 250 243 242 244 249 254 256 260 264 267 271 273 276 282 286 289 294 295 298 299 300 301 302 303 304 304 304 303 303 302 301 300 298 297 295 293 292 290 289 288 286
201 204 207 208 210 212 215 216 211 205 203 204 209 219 222 215 215 215 207 204 208 212 210 206 209 217 222 234 252 244 237 252 267 270 269 264 257 265 304 336 320 326 343 354 306 261 252 255 263 269 269 269 270 270 272 273 279 287 289 294 300 302 303 304 304 304 304 304 305 305 305 305 305 305 304 303 302 300 299 297 295 293 291 289 287
202 204 206 208 211 213 214 215 212 205 202 203 208 216 215 211 216 218 210 210 212 212 214 213 213 219 225 237 249 247 251 275 290 281 271 265 257 249 258 309 319 329 328 318 318 294 268 268 280 296 290 276 271 270 270 273 279 291 295 296 301 305 306 307 307 306 306 306 306 306 306 307 308 309 308 308 307 305 304 302 300 298 295 292 289
205 205 207 208 210 213 214 215 213 204 201 202 206 211 213 213 220 221 216 213 211 209 212 212 214 218 224 235 249 254 256 267 304 307 269 251 251 246 231 232 303 329 334 315 305 298 288 288 303 341 338 300 275 268 267 270 278 292 300 297 299 305 307 307 307 306 306 307 307 307 308 309 311 312 312 312 311 310 310 308 306 304 302 299 296
208 207 208 210 211 213 214 216 215 208 204 206 206 209 214 217 218 217 216 216 216 214 213 213 212 212 217 233 251 258 254 252 266 300 301 214 229 228 216 197 176 322 331 331 323 295 298 317 313 333 359 351 308 276 267 269 276 291 303 303 303 306 309 309 310 309 310 310 311 311 311 311 312 312 313 314 314 314 312 311 309 307 305 303 301
213 211 210 212 213 215 216 217 217 213 211 211 211 210 213 218 217 211 210 213 215 216 219 222 216 211 217 232 249 251 247 253 258 259 242 200 198 200 216 222 182 158 193 307 301 265 284 332 327 316 347 354 338 309 283 280 284 293 302 304 304 307 310 313 313 313 313 312 312 312 312 312 311 312 313 315 315 315 315 314 312 310 308 306 304
216 214 213 213 214 217 219 220 219 217 215 214 214 215 216 219 221 218 214 212 213 214 218 226 226 222 223 229 241 244 241 250 253 239 233 225 221 230 247 256 237 206 193 209 267 268 273 312 323 315 322 329 330 323 308 302 301 300 304 307 309 311 313 315 314 313 314 313 313 314 314 314 314 315 316 317 318 320 321 321 320 319 317 316 314
216 216 216 215 216 219 221 223 223 223 222 219 217 219 221 224 225 225 222 219 220 220 219 225 228 229 230 230 236 240 239 243 240 231 235 239 246 254 255 256 249 237 225 211 221 270 276 297 313 316 321 323 325 324 321 321 319 313 312 312 311 312 312 312 314 314 316 316 317 318 319 320 320 321 322 323 326 328 329 329 329 329 328 327 325
217 217 218 218 220 223 224 225 226 226 227 225 223 223 225 228 229 229 228 224 224 224 222 223 225 229 234 234 234 235 237 239 235 232 238 243 245 248 249 252 250 245 240 224 221 261 282 294 304 313 321 321 320 323 324 327 328 325 320 316 314 314 315 317 319 321 323 323 323 324 325 325 325 326 327 328 330 332 334 336 336 336 336 335 334
219 219 221 223 225 227 226 226 228 229 229 228 227 226 227 230 232 232 231 227 226 225 222 222 223 226 232 235 235 234 234 239 239 236 239 242 245 246 244 248 251 249 245 236 236 262 285 295 300 308 315 316 315 318 322 323 326 327 324 323 323 321 321 321 322 325 327 327 327 326 327 328 329 330 330 331 332 335 338 339 340 341 342 342 342
221 222 224 226 227 228 228 228 230 230 230 229 228 227 227 229 232 233 232 230 229 228 224 223 224 225 229 235 236 232 232 239 241 242 244 244 245 246 244 246 254 257 254 250 247 257 278 290 297 302 306 310 310 314 319 320 322 325 323 323 324 322 321 322 324 327 328 328 328 328 329 331 333 334 335 336 337 338 341 345 350 352 351 351 351
222 224 226 227 227 228 228 229 230 231 231 230 228 228 228 229 231 232 232 231 232 231 230 229 227 226 229 234 236 231 233 241 242 242 246 246 244 244 245 247 256 263 261 257 253 253 267 282 291 296 302 308 308 310 315 315 317 320 319 320 322 322 324 326 327 326 327 331 333 333 334 335 337 339 339 339 342 347 355 1 0 358 358 357 355
221 223 225 227 228 228 229 229 230 230 229 229 228 228 230 230 231 233 233 232 233 234 234 234 231 229 230 234 236 233 235 242 244 242 244 247 246 245 245 249 254 261 263 258 257 258 262 272 283 290 298 303 304 306 310 312 315 317 316 319 322 324 327 329 329 329 331 335 337 337 339 342 342 342 343 347 354 4 9 5 2 2 1 359 355
221 222 224 225 226 227 228 229 229 229 228 228 228 228 230 231 231 233 233 233 234 236 237 237 235 233 233 236 239 237 237 241 243 243 243 247 249 248 247 251 253 258 262 261 261 262 261 267 277 287 295 297 299 303 307 311 314 314 315 321 324 326 328 331 332 333 333 336 340 343 346 347 346 348 353 1 10 12 9 6 5 5 3 2 1
221 222 223 223 224 226 228 229 230 230 229 229 228 228 229 229 230 232 233 234 236 238 238 238 237 237 237 239 242 242 240 241 242 243 244 246 249 250 250 252 253 256 262 264 264 265 264 267 275 284 290 293 297 301 306 311 312 311 316 321 325 329 331 331 332 334 336 341 348 351 349 349 352 357 5 11 12 12 13 11 7 6 6 6 5
222 222 223 224 224 226 227 229 230 231 230 229 229 229 228 228 229 230 231 233 235 238 240 239 239 239 240 242 245 247 246 245 245 245 246 248 249 252 255 256 257 259 262 264 265 265 266 269 273 279 285 291 294 296 302 306 305 308 315 320 325 329 328 327 331 337 342 347 352 353 352 354 359 6 12 14 16 20 19 11 5 6 8 6 5
224 223 224 225 225 226 228 229 230 231 231 229 228 228 228 227 227 229 230 232 233 236 239 240 240 240 241 244 246 248 249 249 249 248 249 250 252 254 257 258 260 262 264 265 266 267 268 270 273 277 283 288 290 292 298 301 303 309 316 317 319 322 324 325 330 340 345 347 349 351 354 359 3 9 14 18 23 24 15 6 7 10 8 4 3
225 225 225 225 226 226 227 228 230 230 230 229 229 228 228 227 226 228 230 231 232 234 236 239 240 241 241 243 245 247 249 251 253 254 254 255 256 257 258 258 259 260 262 264 264 265 267 268 272 276 280 284 287 291 296 299 304 309 310 307 309 316 323 324 327 337 345 345 345 347 353 1 2 8 18 21 20 16 8 6 11 11 6 4 3
226 226 225 225 226 226 227 227 228 229 229 229 230 230 229 228 227 227 228 229 231 232 234 236 238 239 240 242 244 247 249 251 254 256 257 257 257 257 258 258 258 258 259 260 260 261 263 264 268 272 275 279 284 289 293 298 303 305 302 303 307 315 323 324 326 335 344 345 341 341 351 3 2 8 21 17 11 13 13 15 14 9 6 6 5
227 226 225 225 225 226 227 227 228 228 228 229 230 231 231 231 229 226 226 228 229 231 233 235 237 239 240 241 243 245 248 250 252 254 256 257 255 255 257 257 256 257 257 257 258 258 259 260 265 269 268 273 283 289 292 297 303 305 304 305 307 313 322 322 319 325 335 342 338 336 346 1 2 8 14 8 9 19 23 18 12 7 7 8 6
226 225 224 224 224 225 226 227 228 228 229 229 230 231 232 232 231 228 227 228 228 229 231 234 237 240 240 241 242 244 246 248 249 251 254 255 254 253 255 256 257 258 258 258 258 258 258 259 263 265 266 272 282 289 293 298 304 308 309 309 309 312 317 314 307 311 323 334 333 332 341 352 354 358 1 3 12 28 25 14 10 9 10 8 5
225 225 224 224 224 224 225 226 227 228 229 230 230 231 233 233 232 230 228 228 229 229 231 233 235 238 240 240 241 243 245 246 247 249 251 253 253 254 256 258 258 258 258 259 259 260 260 261 261 265 270 274 280 289 297 300 300 303 305 307 310 311 310 308 305 307 317 327 330 332 336 339 342 348 356 4 17 32 17 10 11 12 10 7 5
224 225 225 224 224 224 225 226 227 228 229 230 230 231 232 233 233 232 230 229 230 231 232 233 235 237 239 239 240 242 244 245 245 246 247 249 251 253 256 258 259 259 259 258 258 257 258 258 259 265 272 277 281 291 300 300 297 297 299 301 304 305 303 303 302 303 312 321 329 334 333 331 336 343 354 9 28 31 10 9 12 12 9 7 4
224 225 225 225 224 224 225 225 226 228 229 230 230 231 232 233 233 233 231 230 230 232 233 234 236 238 239 240 241 242 244 245 246 246 246 247 249 251 255 257 258 260 260 259 258 257 256 257 259 265 272 279 284 290 295 295 295 296 296 297 299 298 298 297 297 301 309 317 322 330 336 338 341 343 353 13 44 18 4 9 12 11 9 7 3
225 225 225 225 225 225 225 225 225 228 230 230 230 230 232 233 233 232 231 230 230 232 234 235 236 238 240 240 241 243 244 246 248 248 248 248 249 250 253 255 257 259 261 262 262 261 260 260 262 265 272 279 283 284 285 287 289 290 292 294 293 292 289 287 292 300 310 312 314 326 345 359 355 348 352 12 53 5 3 10 11 11 10 7 4
223 224 224 225 225 225 225 224 224 227 229 230 230 230 231 231 231 230 230 230 230 232 234 236 237 238 240 241 242 243 244 246 249 249 248 247 247 248 250 253 257 260 263 265 266 265 264 263 262 264 269 273 275 277 280 282 282 283 283 281 284 288 283 279 286 295 303 301 301 323 351 9 12 1 359 14 39 357 7 12 10 9 9 6 4
222 224 224 225 225 225 225 225 224 226 229 230 230 231 232 231 230 229 229 229 230 233 235 237 238 239 240 241 242 243 245 247 249 250 248 246 245 246 249 251 255 258 262 265 266 267 266 263 260 261 264 268 274 280 283 281 278 277 274 272 278 283 276 272 277 285 292 285 278 314 351 14 18 13 13 20 14 357 14 15 7 8 8 4 4
221 223 224 224 224 225 225 225 225 226 228 230 230 231 232 231 230 229 228 228 230 233 235 237 238 239 240 242 243 243 245 248 250 250 250 247 246 247 249 249 250 254 259 262 264 266 266 263 262 261 261 266 275 280 282 278 272 269 266 266 272 273 269 271 274 277 279 251 260 317 351 31 25 20 23 26 9 346 11 12 6 7 7 3 2